Simultaneous Nadir Overpasses (SNOs) Predictions

Prediction of SNOs between FY3D and METOP-C Satellite Orbit:

Table of predicted SNOs for the next 14.0 days since TLE Epoch: 5/5/2022
Index Date (FY3D) Time (FY3D) Lat,Lon (FY3D) SZA (FY3D ) Date (METOP-C) Time (METOP-C) Lat,Lon (METOP-C) SZA (METOP-C ) Distance(km) Time Diff (sec)
1 05/18/2022 07:09:49 -74.61,-114.45 124.94 05/18/2022 07:10:55 -74.58,-111.48 125.05 87.65 66
2 05/18/2022 08:00:30 74.39, 53.46 54.81 05/18/2022 08:01:40 74.34, 55.21 54.71 52.93 70
3 05/18/2022 08:51:13 -74.26,-138.88 125.34 05/18/2022 08:52:25 -74.17,-137.89 125.46 31.48 72
4 05/18/2022 09:41:55 74.08, 28.88 54.47 05/18/2022 09:43:08 74.02, 29.07 54.40 8.72 73
5 05/18/2022 10:32:38 -73.99,-163.60 125.64 05/18/2022 10:33:49 -74.00,-163.65 125.64 1.82 71
6 05/18/2022 11:23:24 74.01, 3.67 54.38 05/18/2022 11:24:29 74.00, 3.68 54.36 1.52 65
7 05/18/2022 12:14:09 -73.98, 171.07 125.67 05/18/2022 12:15:11 -73.98, 170.95 125.67 3.59 62
8 05/18/2022 13:04:55 73.99, -21.66 54.34 05/18/2022 13:05:51 73.98, -21.72 54.32 2.70 56
9 05/18/2022 13:55:41 -74.01, 145.61 125.66 05/18/2022 13:56:32 -74.00, 145.68 125.66 1.94 51
10 05/18/2022 14:46:26 73.98, -47.00 54.31 05/18/2022 14:47:12 74.00, -47.00 54.33 2.87 46
11 05/18/2022 15:37:12 -73.99, 120.28 125.69 05/18/2022 15:37:54 -73.98, 120.28 125.70 0.81 42
12 05/18/2022 16:27:57 73.96, -72.33 54.27 05/18/2022 16:28:34 73.98, -72.39 54.29 2.99 37
13 05/18/2022 17:18:43 -73.97, 94.95 125.73 05/18/2022 17:19:16 -73.96, 94.88 125.74 2.33 33
14 05/18/2022 18:09:29 73.99, -97.79 54.29 05/18/2022 18:09:56 73.95, -97.79 54.25 3.73 27
15 05/18/2022 19:00:14 -73.95, 69.61 125.76 05/18/2022 19:00:37 -73.98, 69.61 125.73 3.61 23
16 05/18/2022 19:51:00 73.97,-123.12 54.26 05/18/2022 19:51:17 73.98,-123.07 54.26 2.05 17
17 05/18/2022 20:41:46 -73.98, 44.16 125.74 05/18/2022 20:41:59 -73.96, 44.21 125.77 2.91 13
18 05/18/2022 21:32:31 73.95,-148.46 54.22 05/18/2022 21:32:39 73.96,-148.47 54.23 0.70 8
19 05/18/2022 22:23:17 -73.96, 18.82 125.78 05/18/2022 22:23:21 -73.94, 18.82 125.80 2.91 4
20 05/18/2022 23:14:02 73.93,-173.79 54.19 05/18/2022 23:14:01 73.93,-173.86 54.19 2.22 1
21 05/19/2022 00:04:48 -73.94, -6.51 125.81 05/19/2022 00:04:42 -73.96, -6.46 125.80 2.56 6
22 05/19/2022 00:55:34 73.96, 160.75 54.20 05/19/2022 00:55:22 73.96, 160.86 54.20 3.32 12
23 05/19/2022 01:46:19 -73.93, -31.85 125.85 05/19/2022 01:46:04 -73.94, -31.86 125.83 1.55 15
24 05/19/2022 02:37:05 73.94, 135.42 54.17 05/19/2022 02:36:44 73.93, 135.46 54.16 1.70 21



Historial Predications of SNOs between FY3D and METOP-C
